Flag for Brazil Weather past 2 weeks in Belo Horizonte, Minas Gerais, Brazil

Now
79 °F

Passing clouds.


Feels Like: 79 °F
Forecast: 60 / 78 °F
Wind: 5 mph from Northeast

Location: Belo Horizonte Airport

Current Time: Jul 24, 2014 at 3:00:56 PM

Latest Report: Jul 24, 2014 at 2:00 PM


Visibility: N/A

Pressure: 30.09 "Hg

Humidity: 37%

Dew point: 50 °F

Location of Belo HorizonteLocation

Historic Weather in Belo Horizonte — Graph

°F

Belo Horizonte temperature yesterday

Maximum temperature yesterday: 75 °F (at 1:00 PM)
Minimum temperature yesterday: 54 °F (at 7:00 AM)
Average temperature yesterday: 65 °F

Past Weeks' High & Low Weather Summary

 TemperatureHumidityPressure
High81 °F (Jul 18, 1:00 PM)94% (Jul 15, 7:00 AM)30.36 "Hg (Jul 15, 7:00 AM)
Low52 °F (Jul 15, 7:00 AM)30% (Jul 17, 2:00 PM)30.09 "Hg (Jul 10, 3:00 PM)
Average65 °F63%30.24 "Hg
* Reported Jul 9 2:00 PM — Jul 24 2:00 PM, Belo Horizonte, Weather by CustomWeather, © 2014

Note: Actual official high and low records may vary slightly from our data, if they occured in-between our weather recording intervals... More about our weather records

Advertising

Belo Horizonte weather history for previous 24 hours

 ConditionsComfort  
Time TempWeatherWind HumidityBarometerVisibility
2:00 PM
Jul 24
79 °FPassing clouds.5 mph37%30.09 "HgN/A
1:00 PM75 °FPassing clouds.10 mph44%30.12 "HgN/A
12:00 PM73 °FPassing clouds.12 mph47%30.15 "HgN/A
11:00 AM73 °FSunny.13 mph47%30.18 "Hg10 mi
10:00 AM70 °FSunny.12 mph57%30.21 "Hg10 mi
9:00 AM66 °FSunny.9 mph68%30.21 "Hg10 mi
8:00 AM59 °FSunny.2 mph88%30.21 "Hg10 mi
7:00 AM59 °FSunny.3 mph82%30.18 "Hg10 mi
6:00 AM57 °FClear.5 mph88%30.18 "Hg10 mi
5:00 AM57 °FClear.2 mph88%30.18 "Hg10 mi
4:00 AM59 °FClear.3 mph88%30.18 "Hg10 mi
3:00 AM59 °FClear.2 mph88%30.18 "Hg10 mi
2:00 AM59 °FClear.2 mph82%30.18 "Hg10 mi
1:00 AM61 °FClear.2 mph83%30.18 "Hg10 mi
12:00 AM61 °FClear.6 mph77%30.21 "Hg10 mi
11:00 PM
Jul 23
61 °FClear.2 mph77%30.21 "Hg10 mi
10:00 PM64 °FClear.6 mph68%30.21 "Hg10 mi
9:00 PM64 °FClear.9 mph64%30.18 "Hg10 mi
8:00 PM68 °FClear.10 mph53%30.18 "Hg10 mi
7:00 PM70 °FClear.13 mph46%30.15 "Hg10 mi
6:00 PM70 °FClear.12 mph46%30.15 "Hg10 mi
5:00 PM73 °FPassing clouds.13 mph38%30.15 "HgN/A
4:00 PM75 °FPassing clouds.9 mph36%30.15 "HgN/A
3:00 PM75 °FScattered clouds.9 mph34%30.15 "HgN/A
Weather by CustomWeather, © 2014

See weather overviewHow to use our weather pages